EWG281 LFPB-EGCC

Flight info

Callsign EWG281
Flight time 0h 59m
Altitude 34000
Route OPALE J20 ABB T22 RATUK L613 SANDY UN57 WELIN T420 ELVOS
Aircraft A20N/M-SDE2E3FGHIRWXY/LB1

Departure

Time 2026-04-17 08:07
Airport Paris-Le Bourget International Airport (LFPB)

Arrival

Time 2026-04-17 09:06
Airport Manchester Airport (EGCC)
Time Latitude Longitude Altitude Speed Heading
2026-04-17 07:53 48.94876 2.43126 150 ft 0 kts 298°
2026-04-17 08:00 48.94880 2.43116 150 ft 3 kts 299°
2026-04-17 08:01 48.94909 2.43090 150 ft 7 kts 351°
2026-04-17 08:01 48.94961 2.43121 150 ft 10 kts 27°
2026-04-17 08:01 48.95034 2.43175 150 ft 13 kts 24°
2026-04-17 08:01 48.95127 2.43236 150 ft 14 kts 23°
2026-04-17 08:02 48.95226 2.43308 150 ft 17 kts 26°
2026-04-17 08:02 48.95344 2.43386 150 ft 20 kts 23°
2026-04-17 08:02 48.95476 2.43478 150 ft 22 kts 25°
2026-04-17 08:02 48.95621 2.43582 150 ft 24 kts 25°
2026-04-17 08:03 48.95726 2.43659 150 ft 11 kts 25°
2026-04-17 08:03 48.95798 2.43637 150 ft 13 kts 301°
2026-04-17 08:03 48.95845 2.43503 151 ft 16 kts 296°
2026-04-17 08:03 48.95895 2.43339 150 ft 19 kts 294°
2026-04-17 08:04 48.95957 2.43146 150 ft 21 kts 299°
2026-04-17 08:04 48.96051 2.42951 149 ft 24 kts 309°
2026-04-17 08:04 48.96155 2.42752 148 ft 21 kts 308°
2026-04-17 08:04 48.96251 2.42563 147 ft 24 kts 297°
2026-04-17 08:05 48.96264 2.42310 146 ft 26 kts 267°
2026-04-17 08:05 48.96268 2.42129 148 ft 12 kts 284°
2026-04-17 08:05 48.96337 2.42053 146 ft 15 kts
2026-04-17 08:05 48.96424 2.42162 144 ft 18 kts 67°
2026-04-17 08:06 48.96431 2.42192 145 ft 3 kts 68°
2026-04-17 08:06 48.96530 2.42562 148 ft 81 kts 68°
2026-04-17 08:06 48.96847 2.43758 148 ft 158 kts 68°
2026-04-17 08:06 48.97296 2.45457 738 ft 178 kts 68°
2026-04-17 08:07 48.97713 2.47256 1712 ft 188 kts 80°
2026-04-17 08:07 48.97734 2.49252 2746 ft 192 kts 99°
2026-04-17 08:07 48.97440 2.51328 3437 ft 216 kts 105°
2026-04-17 08:07 48.97061 2.53716 3959 ft 245 kts 104°
2026-04-17 08:08 48.96691 2.56368 4653 ft 265 kts 101°
2026-04-17 08:08 48.96399 2.59173 5601 ft 272 kts 98°
2026-04-17 08:08 48.96181 2.62081 6587 ft 280 kts 95°
2026-04-17 08:08 48.95997 2.65056 7567 ft 285 kts 96°
2026-04-17 08:09 48.95812 2.68074 8570 ft 289 kts 96°
2026-04-17 08:09 48.95614 2.71148 9575 ft 294 kts 97°
2026-04-17 08:09 48.95406 2.74268 10515 ft 300 kts 98°
2026-04-17 08:09 48.95180 2.77525 10989 ft 322 kts 98°
2026-04-17 08:10 48.94928 2.81043 11358 ft 345 kts 98°
2026-04-17 08:10 48.94655 2.84731 12035 ft 355 kts 98°
2026-04-17 08:10 48.94373 2.88498 12879 ft 360 kts 98°
2026-04-17 08:10 48.94108 2.92319 13684 ft 367 kts 94°
2026-04-17 08:11 48.94414 2.96193 14448 ft 374 kts 73°
2026-04-17 08:11 48.95569 2.99730 15204 ft 378 kts 53°
2026-04-17 08:11 48.97445 3.02540 15930 ft 380 kts 33°
2026-04-17 08:11 48.99823 3.04276 16668 ft 380 kts 13°
2026-04-17 08:12 49.02437 3.04758 17409 ft 379 kts 354°
2026-04-17 08:12 49.05008 3.03955 18138 ft 378 kts 335°
2026-04-17 08:12 49.07274 3.01968 18824 ft 376 kts 319°
2026-04-17 08:12 49.09254 2.99355 19500 ft 378 kts 316°
2026-04-17 08:13 49.11267 2.96737 20154 ft 382 kts 319°
2026-04-17 08:13 49.13374 2.94240 20793 ft 385 kts 319°
2026-04-17 08:13 49.15393 2.91528 21437 ft 387 kts 314°
2026-04-17 08:14 49.19426 2.85957 22701 ft 394 kts 316°
2026-04-17 08:14 49.21493 2.83173 23323 ft 398 kts 316°
2026-04-17 08:14 49.23575 2.80366 23921 ft 401 kts 316°
2026-04-17 08:14 49.25669 2.77519 24449 ft 403 kts 316°
2026-04-17 08:15 49.27765 2.74656 24981 ft 406 kts 316°
2026-04-17 08:15 49.29882 2.71766 25489 ft 408 kts 316°
2026-04-17 08:15 49.31981 2.68903 25993 ft 411 kts 316°
2026-04-17 08:15 49.34118 2.65990 26483 ft 413 kts 316°
2026-04-17 08:16 49.36301 2.63011 26972 ft 416 kts 316°
2026-04-17 08:16 49.38467 2.60052 27433 ft 418 kts 316°
2026-04-17 08:16 49.40617 2.57112 27884 ft 420 kts 316°
2026-04-17 08:16 49.42805 2.54115 28327 ft 423 kts 316°
2026-04-17 08:17 49.45008 2.51094 28754 ft 425 kts 316°
2026-04-17 08:17 49.47219 2.48058 29180 ft 427 kts 316°
2026-04-17 08:17 49.49437 2.45008 29588 ft 429 kts 316°
2026-04-17 08:17 49.51672 2.41928 29979 ft 432 kts 316°
2026-04-17 08:18 49.53908 2.38845 30362 ft 434 kts 315°
2026-04-17 08:18 49.56159 2.35735 30712 ft 435 kts 315°
2026-04-17 08:18 49.58418 2.32611 31069 ft 437 kts 315°
2026-04-17 08:18 49.60681 2.29478 31449 ft 438 kts 315°
2026-04-17 08:19 49.62945 2.26338 31893 ft 437 kts 315°
2026-04-17 08:19 49.65204 2.23203 32374 ft 435 kts 315°
2026-04-17 08:19 49.67449 2.20082 32853 ft 433 kts 315°
2026-04-17 08:19 49.69685 2.16969 33329 ft 432 kts 315°
2026-04-17 08:20 49.71907 2.13870 33778 ft 430 kts 315°
2026-04-17 08:20 49.74121 2.10779 34149 ft 428 kts 315°
2026-04-17 08:20 49.76328 2.07697 34227 ft 426 kts 315°
2026-04-17 08:21 49.80714 2.01555 34235 ft 427 kts 315°
2026-04-17 08:21 49.85194 1.95256 34228 ft 441 kts 315°
2026-04-17 08:22 49.90268 1.89840 34230 ft 450 kts 333°
2026-04-17 08:22 49.93259 1.88320 34228 ft 456 kts 344°
2026-04-17 08:22 49.96422 1.87674 34232 ft 461 kts 351°
2026-04-17 08:23 50.02814 1.86863 34228 ft 461 kts 351°
2026-04-17 08:23 50.09204 1.86034 34230 ft 461 kts 351°
2026-04-17 08:24 50.15511 1.84635 34222 ft 455 kts 341°
2026-04-17 08:24 50.21617 1.82084 34226 ft 455 kts 341°
2026-04-17 08:25 50.27738 1.79563 34221 ft 455 kts 341°
2026-04-17 08:25 50.33853 1.77023 34215 ft 455 kts 340°
2026-04-17 08:26 50.39970 1.74467 34203 ft 454 kts 340°
2026-04-17 08:26 50.46083 1.71905 34214 ft 455 kts 340°
2026-04-17 08:27 50.52196 1.69337 34209 ft 455 kts 340°
2026-04-17 08:27 50.58130 1.66124 34214 ft 446 kts 326°
2026-04-17 08:28 50.62983 1.60229 34216 ft 440 kts 316°
2026-04-17 08:28 50.67663 1.54020 34209 ft 440 kts 316°
2026-04-17 08:29 50.72353 1.47811 34214 ft 440 kts 316°
2026-04-17 08:29 50.77036 1.41595 34211 ft 440 kts 315°
2026-04-17 08:30 50.81686 1.35401 34211 ft 440 kts 315°
2026-04-17 08:30 50.85606 1.30165 34213 ft 440 kts 315°
2026-04-17 08:31 50.90286 1.23898 34210 ft 440 kts 315°
2026-04-17 08:31 50.95715 1.16607 34211 ft 440 kts 315°
2026-04-17 08:32 50.99631 1.11334 34212 ft 440 kts 315°
2026-04-17 08:32 51.04301 1.05029 34211 ft 441 kts 315°
2026-04-17 08:33 51.08968 0.98711 34209 ft 441 kts 315°
2026-04-17 08:33 51.13632 0.92379 34204 ft 440 kts 314°
2026-04-17 08:34 51.18259 0.86082 34201 ft 440 kts 314°
2026-04-17 08:34 51.20618 0.82863 34038 ft 440 kts 314°
2026-04-17 08:34 51.22946 0.79684 34010 ft 441 kts 314°
2026-04-17 08:35 51.27590 0.73327 33983 ft 440 kts 314°
2026-04-17 08:35 51.32237 0.66949 33973 ft 441 kts 314°
2026-04-17 08:36 51.36887 0.60548 34181 ft 441 kts 314°
2026-04-17 08:36 51.41533 0.54137 34186 ft 441 kts 314°
2026-04-17 08:37 51.46174 0.47714 34184 ft 441 kts 314°
2026-04-17 08:37 51.50809 0.41280 34179 ft 441 kts 313°
2026-04-17 08:38 51.55451 0.34820 34178 ft 441 kts 313°
2026-04-17 08:38 51.60054 0.28395 34178 ft 441 kts 313°
2026-04-17 08:39 51.64676 0.21926 34180 ft 441 kts 313°
2026-04-17 08:39 51.69270 0.15478 34176 ft 441 kts 313°
2026-04-17 08:40 51.73889 0.08976 34159 ft 441 kts 313°
2026-04-17 08:40 51.78472 0.02508 34157 ft 440 kts 313°
2026-04-17 08:41 51.83063 -0.03991 34158 ft 440 kts 313°
2026-04-17 08:41 51.87694 -0.10564 34156 ft 440 kts 312°
2026-04-17 08:42 51.92265 -0.17071 34157 ft 440 kts 312°
2026-04-17 08:42 51.96861 -0.23632 34151 ft 440 kts 312°
2026-04-17 08:43 52.01454 -0.30206 34152 ft 440 kts 312°
2026-04-17 08:43 52.06039 -0.36789 34132 ft 440 kts 312°
2026-04-17 08:44 52.10619 -0.43384 34132 ft 440 kts 312°
2026-04-17 08:44 52.15187 -0.49978 34128 ft 435 kts 311°
2026-04-17 08:44 52.17420 -0.53197 34130 ft 422 kts 311°
2026-04-17 08:45 52.19602 -0.56353 34120 ft 420 kts 311°
2026-04-17 08:45 52.21790 -0.59539 33861 ft 423 kts 311°
2026-04-17 08:45 52.23984 -0.62735 33270 ft 425 kts 311°
2026-04-17 08:45 52.26202 -0.65971 32258 ft 432 kts 311°
2026-04-17 08:46 52.28469 -0.69285 30979 ft 443 kts 311°
2026-04-17 08:46 52.30782 -0.72666 29923 ft 448 kts 311°
2026-04-17 08:46 52.33104 -0.76050 29132 ft 445 kts 312°
2026-04-17 08:46 52.35385 -0.79373 28659 ft 434 kts 311°
2026-04-17 08:47 52.37616 -0.82626 28114 ft 426 kts 311°
2026-04-17 08:47 52.39813 -0.85849 27510 ft 421 kts 311°
2026-04-17 08:47 52.41968 -0.89014 26994 ft 414 kts 311°
2026-04-17 08:47 52.44103 -0.92158 26426 ft 409 kts 311°
2026-04-17 08:48 52.46207 -0.95262 25865 ft 405 kts 311°
2026-04-17 08:48 52.48285 -0.98328 25314 ft 401 kts 311°
2026-04-17 08:48 52.50352 -1.01385 24763 ft 397 kts 311°
2026-04-17 08:48 52.52393 -1.04408 24222 ft 394 kts 311°
2026-04-17 08:49 52.54424 -1.07419 23656 ft 391 kts 311°
2026-04-17 08:49 52.56436 -1.10404 23078 ft 387 kts 310°
2026-04-17 08:49 52.58422 -1.13351 22555 ft 382 kts 311°
2026-04-17 08:49 52.60379 -1.16262 22024 ft 378 kts 311°
2026-04-17 08:50 52.62319 -1.19151 21503 ft 374 kts 311°
2026-04-17 08:50 52.64237 -1.22011 20981 ft 370 kts 311°
2026-04-17 08:50 52.66140 -1.24852 20464 ft 367 kts 311°
2026-04-17 08:50 52.68025 -1.27667 19950 ft 365 kts 311°
2026-04-17 08:51 52.69924 -1.30434 19441 ft 365 kts 315°
2026-04-17 08:51 52.72043 -1.32785 18917 ft 369 kts 322°
2026-04-17 08:51 52.74235 -1.35007 18489 ft 376 kts 322°
2026-04-17 08:51 52.76530 -1.37347 18045 ft 396 kts 322°
2026-04-17 08:52 52.78894 -1.39758 17461 ft 403 kts 323°
2026-04-17 08:52 52.81292 -1.42200 16883 ft 403 kts 323°
2026-04-17 08:52 52.83666 -1.44619 16311 ft 399 kts 323°
2026-04-17 08:52 52.86008 -1.47010 15750 ft 393 kts 323°
2026-04-17 08:53 52.88315 -1.49372 15190 ft 387 kts 323°
2026-04-17 08:53 52.90585 -1.51704 14637 ft 382 kts 323°
2026-04-17 08:53 52.92823 -1.54007 14075 ft 377 kts 323°
2026-04-17 08:53 52.95043 -1.56295 13525 ft 372 kts 323°
2026-04-17 08:54 52.97228 -1.58548 12986 ft 366 kts 323°
2026-04-17 08:54 52.99371 -1.60761 12467 ft 361 kts 323°
2026-04-17 08:54 53.01460 -1.62921 11960 ft 356 kts 323°
2026-04-17 08:54 53.03573 -1.65112 11441 ft 351 kts 322°
2026-04-17 08:55 53.05456 -1.67486 11169 ft 336 kts 314°
2026-04-17 08:55 53.07066 -1.70224 11030 ft 318 kts 306°
2026-04-17 08:55 53.08446 -1.72922 10909 ft 304 kts 306°
2026-04-17 08:55 53.09796 -1.75523 10761 ft 292 kts 306°
2026-04-17 08:56 53.11114 -1.78067 10422 ft 289 kts 306°
2026-04-17 08:56 53.12418 -1.80595 10056 ft 287 kts 306°
2026-04-17 08:56 53.13711 -1.83107 9664 ft 285 kts 306°
2026-04-17 08:56 53.14996 -1.85606 9274 ft 283 kts 305°
2026-04-17 08:57 53.16271 -1.88087 8855 ft 281 kts 305°
2026-04-17 08:57 53.17538 -1.90559 8457 ft 279 kts 305°
2026-04-17 08:57 53.18791 -1.93001 8131 ft 274 kts 305°
2026-04-17 08:57 53.20007 -1.95369 8019 ft 263 kts 305°
2026-04-17 08:58 53.21167 -1.97624 8004 ft 249 kts 304°
2026-04-17 08:58 53.22317 -1.99798 7999 ft 253 kts 311°
2026-04-17 08:58 53.23878 -2.01253 8007 ft 267 kts 340°
2026-04-17 08:58 53.25754 -2.01338 8004 ft 277 kts
2026-04-17 08:59 53.27527 -2.00015 7989 ft 284 kts 30°
2026-04-17 08:59 53.29210 -1.98257 7756 ft 286 kts 30°
2026-04-17 08:59 53.30894 -1.96485 7393 ft 287 kts 30°
2026-04-17 08:59 53.32574 -1.94711 7029 ft 286 kts 30°
2026-04-17 09:00 53.34257 -1.92932 6624 ft 286 kts 30°
2026-04-17 09:00 53.35926 -1.91157 6195 ft 282 kts 30°
2026-04-17 09:00 53.37636 -1.89650 5757 ft 274 kts 12°
2026-04-17 09:00 53.39474 -1.89442 5324 ft 262 kts 344°
2026-04-17 09:01 53.41136 -1.90552 4902 ft 255 kts 318°
2026-04-17 09:01 53.42321 -1.92640 4453 ft 244 kts 295°
2026-04-17 09:01 53.43204 -1.95080 4025 ft 246 kts 294°
2026-04-17 09:01 53.44097 -1.97529 3643 ft 245 kts 295°
2026-04-17 09:02 53.44982 -1.99914 3514 ft 235 kts 294°
2026-04-17 09:02 53.45693 -2.02234 3501 ft 212 kts 277°
2026-04-17 09:02 53.45704 -2.04621 3505 ft 204 kts 250°
2026-04-17 09:02 53.45148 -2.06739 3498 ft 193 kts 235°
2026-04-17 09:03 53.44400 -2.08516 3451 ft 181 kts 230°
2026-04-17 09:03 53.43624 -2.10109 3120 ft 174 kts 230°
2026-04-17 09:03 53.42899 -2.11641 2787 ft 161 kts 228°
2026-04-17 09:03 53.42217 -2.13069 2378 ft 154 kts 227°
2026-04-17 09:04 53.41546 -2.14474 1953 ft 158 kts 226°
2026-04-17 09:04 53.40848 -2.15937 1546 ft 160 kts 227°
2026-04-17 09:04 53.40202 -2.17393 1219 ft 154 kts 229°
2026-04-17 09:04 53.39564 -2.18831 992 ft 152 kts 227°
2026-04-17 09:05 53.38902 -2.20200 833 ft 151 kts 225°
2026-04-17 09:05 53.38224 -2.21580 751 ft 151 kts 228°
2026-04-17 09:05 53.37597 -2.22888 656 ft 142 kts 228°
2026-04-17 09:05 53.36995 -2.24148 483 ft 132 kts 227°
2026-04-17 09:06 53.36428 -2.25320 370 ft 130 kts 227°
2026-04-17 09:06 53.35861 -2.26492 255 ft 123 kts 227°
2026-04-17 09:06 53.35416 -2.27401 242 ft 77 kts 230°
2026-04-17 09:06 53.35263 -2.27846 236 ft 38 kts 259°
2026-04-17 09:07 53.35236 -2.28100 231 ft 12 kts 261°
2026-04-17 09:07 53.35265 -2.28234 228 ft 11 kts 336°
2026-04-17 09:07 53.35279 -2.28232 228 ft 0 kts 17°
2026-04-17 09:09 53.35280 -2.28232 228 ft 0 kts 17°
2026-04-17 09:09 53.35295 -2.28224 229 ft 5 kts 18°
2026-04-17 09:10 53.35450 -2.28148 234 ft 18 kts 12°
2026-04-17 09:10 53.35569 -2.28024 234 ft 22 kts 54°
2026-04-17 09:10 53.35666 -2.27809 236 ft 24 kts 51°
2026-04-17 09:11 53.35765 -2.27662 242 ft 17 kts 11°
2026-04-17 09:11 53.35889 -2.27646 243 ft 20 kts
2026-04-17 09:11 53.36037 -2.27622 243 ft 23 kts
2026-04-17 09:11 53.36081 -2.27605 243 ft 0 kts 45°
2026-04-17 09:12 53.36080 -2.27565 243 ft 7 kts 95°
2026-04-17 09:12 53.36077 -2.27515 243 ft 0 kts 97°